Location: Fort Wayne
(41.1310°N, 85.1290°W)
Time: 10:00:49
(UTC-04:00)

Vanguard 3 - Visible Passes

Search period start: 21 September 2017 00:00
Search period end: 01 October 2017 00:00
Orbit: 509 x 3264 km, 33.3° (Epoch: 21 September)

Date Brightness Start Highest point End Pass type
(mag) Time Alt. Az. Time Alt. Az. Time Alt. Az.
21 Sep 10.8 21:46:06 10° W 21:56:48 26° SSW 22:10:38 10° SSE visible
22 Sep 10.5 20:31:18 10° W 20:41:30 34° SSW 20:56:21 10° SSE visible
22 Sep 11.3 22:49:05 10° WSW 22:55:46 14° SW 23:03:16 10° SSW visible
23 Sep 11.0 21:31:25 10° WSW 21:40:32 21° SSW 21:52:13 10° S visible
24 Sep 10.6 20:16:23 10° W 20:25:25 28° SSW 20:38:27 10° SSE visible
25 Sep 11.1 21:17:16 10° WSW 21:24:24 16° SSW 21:33:15 10° S visible
26 Sep 10.8 20:01:44 10° WSW 20:09:28 23° SSW 20:20:17 10° SSE visible
27 Sep 11.3 21:04:24 10° SW 21:08:26 12° SSW 21:13:00 10° SSW visible
28 Sep 10.9 19:47:29 10° WSW 19:53:38 18° SSW 20:01:45 10° S visible
